• In Romania
  • List of Countries
  • For 7 days
  • Water Temperature
  • Satellite Maps
  • Weather Map
  • Weather Widgets
  • user-avatar
    Login

    Hourly Weather Satif

    Today, 21 September, Thursday

    Time Temperature Precipitation Wind Pressure Humidity
    00:00 +18°C° 0 mm 1 mps 675 mmHg 63%
    01:00 +18°C° 0 mm 1 mps 675 mmHg 63%
    02:00 +18°C° 0 mm 1 mps 675 mmHg 62%
    03:00 +16°C° 0 mm 1 mps 674 mmHg 62%
    04:00 +18°C° 0 mm 1 mps 674 mmHg 61%
    05:00 +17°C° 0 mm 2 mps 674 mmHg 60%
    06:00 +17°C° 0 mm 2 mps 675 mmHg 57%
    07:00 +19°C° 0 mm 3 mps 675 mmHg 51%
    08:00 +20°C° 0 mm 3 mps 676 mmHg 44%
    09:00 +22°C° 0 mm 4 mps 676 mmHg 37%
    10:00 +23°C° 0 mm 4 mps 676 mmHg 35%
    11:00 +25°C° 0 mm 4 mps 676 mmHg 32%
    12:00 +26°C° 0 mm 4 mps 676 mmHg 29%
    13:00 +26°C° 0 mm 4 mps 676 mmHg 29%
    14:00 +26°C° 0 mm 4 mps 675 mmHg 28%
    15:00 +26°C° 0 mm 3 mps 675 mmHg 28%
    16:00 +25°C° 0 mm 3 mps 675 mmHg 31%
    17:00 +24°C° 0 mm 3 mps 675 mmHg 34%
    18:00 +23°C° 0 mm 2 mps 674 mmHg 37%
    19:00 +23°C° 0 mm 2 mps 675 mmHg 39%
    20:00 +21°C° 0 mm 2 mps 675 mmHg 40%
    21:00 +21°C° 0 mm 2 mps 675 mmHg 42%
    22:00 +20°C° 0 mm 2 mps 675 mmHg 43%
    23:00 +20°C° 0 mm 2 mps 674 mmHg 43%

    Tomorrow, 22 September, Friday

    Time Temperature Precipitation Wind Pressure Humidity
    00:00 +19°C° 0 mm 2 mps 674 mmHg 43%
    01:00 +19°C° 0 mm 2 mps 674 mmHg 44%
    02:00 +19°C° 0 mm 2 mps 674 mmHg 44%
    03:00 +18°C° 0 mm 2 mps 673 mmHg 45%
    04:00 +18°C° 0 mm 2 mps 674 mmHg 45%
    05:00 +18°C° 0 mm 2 mps 674 mmHg 46%
    06:00 +18°C° 0 mm 2 mps 674 mmHg 46%
    07:00 +20°C° 0 mm 2 mps 674 mmHg 41%
    08:00 +22°C° 0 mm 3 mps 675 mmHg 36%
    09:00 +25°C° 0 mm 3 mps 676 mmHg 31%
    10:00 +26°C° 0 mm 3 mps 676 mmHg 28%
    11:00 +27°C° 0 mm 3 mps 676 mmHg 26%
    12:00 +28°C° 0 mm 3 mps 676 mmHg 24%
    13:00 +28°C° 0 mm 3 mps 676 mmHg 24%
    14:00 +28°C° 0 mm 3 mps 676 mmHg 25%
    15:00 +28°C° 0 mm 3 mps 675 mmHg 25%
    16:00 +27°C° 0 mm 3 mps 675 mmHg 29%
    17:00 +26°C° 0 mm 2 mps 675 mmHg 33%
    18:00 +25°C° 0 mm 2 mps 675 mmHg 37%
    19:00 +24°C° 0 mm 2 mps 675 mmHg 39%
    20:00 +24°C° 0 mm 1 mps 676 mmHg 41%
    21:00 +23°C° 0 mm 1 mps 676 mmHg 44%
    22:00 +23°C° 0 mm 1 mps 676 mmHg 43%
    23:00 +22°C° 0 mm 1 mps 676 mmHg 43%

    Day after tomorrow, 23 September, Saturday

    Time Temperature Precipitation Wind Pressure Humidity
    00:00 +21°C° 0 mm 2 mps 675 mmHg 43%
    01:00 +21°C° 0 mm 2 mps 675 mmHg 43%
    02:00 +21°C° 0 mm 2 mps 675 mmHg 44%
    03:00 +22°C° 0 mm 1 mps 675 mmHg 44%
    04:00 +21°C° 0.1 mm 2 mps 675 mmHg 44%
    05:00 +21°C° 0.1 mm 2 mps 675 mmHg 44%
    06:00 +20°C° 0.1 mm 2 mps 675 mmHg 44%
    07:00 +23°C° 0 mm 2 mps 676 mmHg 41%
    08:00 +24°C° 0 mm 2 mps 676 mmHg 37%
    09:00 +25°C° 0 mm 3 mps 677 mmHg 34%
    10:00 +26°C° 0 mm 3 mps 677 mmHg 32%
    11:00 +27°C° 0 mm 3 mps 677 mmHg 30%
    12:00 +28°C° 0 mm 4 mps 677 mmHg 28%
    13:00 +28°C° 0 mm 4 mps 676 mmHg 28%
    14:00 +28°C° 0 mm 4 mps 676 mmHg 27%
    15:00 +28°C° 0 mm 4 mps 676 mmHg 27%
    16:00 +28°C° 0 mm 3 mps 675 mmHg 29%
    17:00 +27°C° 0 mm 3 mps 675 mmHg 31%
    18:00 +26°C° 0 mm 2 mps 675 mmHg 33%
    19:00 +25°C° 0 mm 2 mps 675 mmHg 34%
    20:00 +25°C° 0 mm 2 mps 675 mmHg 36%
    21:00 +24°C° 0 mm 2 mps 675 mmHg 38%
    22:00 +24°C° 0 mm 2 mps 675 mmHg 39%
    23:00 +23°C° 0 mm 2 mps 675 mmHg 40%

    24 September, Sunday

    Time Temperature Precipitation Wind Pressure Humidity
    00:00 +23°C° 0 mm 2 mps 675 mmHg 41%
    01:00 +21°C° 0 mm 2 mps 674 mmHg 43%
    02:00 +21°C° 0 mm 2 mps 674 mmHg 44%
    03:00 +20°C° 0 mm 2 mps 674 mmHg 46%
    04:00 +20°C° 0 mm 2 mps 674 mmHg 48%
    05:00 +20°C° 0 mm 2 mps 674 mmHg 50%
    06:00 +19°C° 0 mm 2 mps 674 mmHg 52%
    07:00 +21°C° 0 mm 3 mps 675 mmHg 48%
    08:00 +22°C° 0 mm 3 mps 675 mmHg 43%
    09:00 +25°C° 0 mm 3 mps 676 mmHg 39%
    10:00 +26°C° 0 mm 3 mps 676 mmHg 37%
    11:00 +27°C° 0 mm 3 mps 676 mmHg 35%
    12:00 +27°C° 0 mm 3 mps 676 mmHg 33%
    13:00 +27°C° 0.3 mm 3 mps 676 mmHg 34%
    14:00 +27°C° 0.3 mm 4 mps 676 mmHg 35%
    15:00 +27°C° 0.3 mm 4 mps 676 mmHg 36%
    16:00 +26°C° 0.1 mm 4 mps 675 mmHg 43%
    17:00 +25°C° 0.1 mm 3 mps 675 mmHg 50%
    18:00 +22°C° 0.1 mm 3 mps 675 mmHg 57%
    19:00 +22°C° 0 mm 3 mps 675 mmHg 61%
    20:00 +21°C° 0 mm 2 mps 675 mmHg 66%
    21:00 +21°C° 0 mm 1 mps 675 mmHg 70%
    22:00 +21°C° 0 mm 1 mps 675 mmHg 72%
    23:00 +21°C° 0 mm 1 mps 675 mmHg 73%

    25 September, Monday

    Time Temperature Precipitation Wind Pressure Humidity
    00:00 +20°C° 0 mm 1 mps 675 mmHg 75%
    01:00 +20°C° 0 mm 1 mps 674 mmHg 76%
    02:00 +19°C° 0 mm 1 mps 674 mmHg 77%
    03:00 +17°C° 0 mm 0 mps 673 mmHg 77%
    04:00 +17°C° 0 mm 0 mps 673 mmHg 77%
    05:00 +17°C° 0 mm 0 mps 673 mmHg 76%
    06:00 +17°C° 0 mm 0 mps 673 mmHg 75%
    07:00 +20°C° 0 mm 1 mps 674 mmHg 64%
    08:00 +22°C° 0 mm 1 mps 675 mmHg 53%
    09:00 +24°C° 0 mm 1 mps 675 mmHg 42%
    10:00 +25°C° 0 mm 1 mps 675 mmHg 37%
    11:00 +26°C° 0 mm 2 mps 675 mmHg 32%
    12:00 +27°C° 0 mm 2 mps 675 mmHg 26%
    13:00 +27°C° 0 mm 3 mps 675 mmHg 26%
    14:00 +27°C° 0 mm 3 mps 675 mmHg 25%
    15:00 +27°C° 0 mm 3 mps 675 mmHg 25%
    16:00 +26°C° 0 mm 3 mps 675 mmHg 29%
    17:00 +25°C° 0 mm 3 mps 675 mmHg 33%
    18:00 +24°C° 0 mm 3 mps 674 mmHg 37%
    19:00 +23°C° 0 mm 2 mps 674 mmHg 39%
    20:00 +21°C° 0 mm 2 mps 674 mmHg 42%
    21:00 +22°C° 0 mm 1 mps 675 mmHg 45%
    22:00 +21°C° 0 mm 1 mps 674 mmHg 46%
    23:00 +21°C° 0 mm 1 mps 674 mmHg 46%

    26 September, Tuesday

    Time Temperature Precipitation Wind Pressure Humidity
    00:00 +20°C° 0 mm 1 mps 674 mmHg 47%
    01:00 +20°C° 0 mm 1 mps 674 mmHg 47%
    02:00 +20°C° 0 mm 1 mps 673 mmHg 48%
    03:00 +19°C° 0 mm 1 mps 673 mmHg 48%
    04:00 +17°C° 0 mm 0 mps 673 mmHg 49%
    05:00 +17°C° 0 mm 0 mps 673 mmHg 49%
    06:00 +17°C° 0 mm 0 mps 673 mmHg 50%
    07:00 +18°C° 0 mm 0 mps 674 mmHg 44%
    08:00 +22°C° 0 mm 1 mps 674 mmHg 39%
    09:00 +24°C° 0 mm 1 mps 675 mmHg 34%
    10:00 +25°C° 0 mm 1 mps 675 mmHg 31%
    11:00 +26°C° 0 mm 2 mps 675 mmHg 29%
    12:00 +27°C° 0 mm 2 mps 675 mmHg 26%
    13:00 +27°C° 0 mm 2 mps 675 mmHg 26%
    14:00 +27°C° 0 mm 3 mps 675 mmHg 26%
    15:00 +27°C° 0 mm 3 mps 675 mmHg 25%
    16:00 +26°C° 0 mm 2 mps 675 mmHg 29%
    17:00 +25°C° 0 mm 2 mps 674 mmHg 32%
    18:00 +24°C° 0 mm 2 mps 674 mmHg 36%
    19:00 +23°C° 0 mm 2 mps 674 mmHg 38%
    20:00 +22°C° 0 mm 1 mps 674 mmHg 41%
    21:00 +22°C° 0 mm 1 mps 675 mmHg 43%
    22:00 +21°C° 0 mm 1 mps 674 mmHg 44%
    23:00 +21°C° 0 mm 1 mps 674 mmHg 45%
    Show more